Вернуться в каталог

STARLINK-37888

АктивенСвязьVLEO
NORAD 69535·PAYLOAD·🇺🇸 United States

Запущен Jun 12, 2026 с Cape Canaveral Space Force Station

Loading…

Ближайшие Пролёты (ближайшие 24 часа)

TLE

СвежийSource: CelesTrak SupGP

Эпоха: Sep 15, 2026, 04:11 UTC

1 69535C 26133AD  26258.17479167 -.00046369  00000+0 -13700-2 0  2588
2 69535  53.1571 254.8256 0001368  83.1916 257.7132 15.34414191    11

Отслеживайте STARLINK-37888 в реальном времени с AllMySat

Download on the App Store